TimePST,TemperatureF,Dew PointF,Humidity,Sea Level PressureIn,VisibilityMPH,Wind Direction,Wind SpeedMPH,Gust SpeedMPH,PrecipitationIn,Events,Conditions,WindDirDegrees,DateUTC
12:56 AM,57.9,42.1,56,29.47,10.0,SSE,13.8,23.0,N/A,,Partly Cloudy,150,2014-02-28 08:56:00
1:56 AM,57.0,42.1,57,29.44,10.0,ESE,17.3,36.8,N/A,,Scattered Clouds,120,2014-02-28 09:56:00
2:56 AM,55.0,45.0,69,29.38,7.0,East,24.2,35.7,0.01,Rain,Light Rain,100,2014-02-28 10:56:00
3:56 AM,53.1,46.0,77,29.36,7.0,SE,16.1,24.2,0.13,Rain,Light Rain,140,2014-02-28 11:56:00
4:46 AM,52.0,46.9,83,29.40,6.0,Variable,3.5,-,0.07,Rain,Rain,0,2014-02-28 12:46:00
4:56 AM,52.0,46.9,83,29.39,5.0,South,6.9,-,0.10,Rain,Rain,180,2014-02-28 12:56:00
5:29 AM,53.1,46.9,80,29.35,10.0,SSE,10.4,23.0,0.04,Rain,Light Rain,150,2014-02-28 13:29:00
5:54 AM,53.6,46.4,77,29.35,10.0,SSE,9.2,-,0.04,,Overcast,160,2014-02-28 13:54:00
5:56 AM,53.1,46.0,77,29.34,10.0,SE,8.1,-,0.04,,Overcast,140,2014-02-28 13:56:00
6:54 AM,53.6,46.4,77,29.35,10.0,Variable,6.9,-,0.00,Rain,Light Rain,0,2014-02-28 14:54:00
6:56 AM,53.1,46.0,77,29.34,10.0,Variable,5.8,-,0.00,Rain,Light Rain,0,2014-02-28 14:56:00
7:07 AM,53.1,46.9,80,29.35,7.0,SE,4.6,17.3,0.01,Rain,Light Rain,140,2014-02-28 15:07:00
7:26 AM,53.1,46.9,80,29.35,6.0,South,10.4,-,0.02,Rain,Light Rain,190,2014-02-28 15:26:00
7:56 AM,53.1,46.9,80,29.35,4.0,SSE,11.5,-,0.06,Rain,Light Rain,150,2014-02-28 15:56:00
8:06 AM,52.0,48.0,86,29.36,2.5,Variable,6.9,-,0.03,Rain,Rain,0,2014-02-28 16:06:00
8:12 AM,52.0,48.0,86,29.35,6.0,SW,9.2,-,0.03,Rain,Light Rain,230,2014-02-28 16:12:00
8:36 AM,53.1,46.9,80,29.36,7.0,South,13.8,21.9,0.04,Rain,Light Rain,190,2014-02-28 16:36:00
8:56 AM,53.1,48.0,83,29.35,3.0,Variable,3.5,-,0.09,Rain,Rain,0,2014-02-28 16:56:00
9:25 AM,53.1,48.0,83,29.37,2.5,South,6.9,-,0.07,Rain,Rain,190,2014-02-28 17:25:00
9:33 AM,53.1,48.0,83,29.37,5.0,SSW,9.2,-,0.07,Rain,Light Rain,200,2014-02-28 17:33:00
9:56 AM,53.1,48.9,86,29.37,2.5,South,8.1,-,0.13,Rain,Rain,180,2014-02-28 17:56:00
10:10 AM,53.1,50.0,89,29.39,3.0,SSE,6.9,-,0.02,Rain,Light Rain,160,2014-02-28 18:10:00
10:31 AM,55.0,51.1,86,29.39,10.0,SE,9.2,-,0.02,,Overcast,140,2014-02-28 18:31:00
10:56 AM,55.0,50.0,83,29.38,10.0,SE,10.4,17.3,0.02,Rain,Light Rain,140,2014-02-28 18:56:00
11:39 AM,53.1,50.0,89,29.39,2.0,SE,11.5,18.4,0.04,Rain,Rain,140,2014-02-28 19:39:00
11:49 AM,54.0,51.1,90,29.39,5.0,SSE,9.2,-,0.04,Rain,Light Rain,150,2014-02-28 19:49:00
11:56 AM,54.0,51.1,90,29.38,8.0,SSE,8.1,-,0.04,Rain,Light Rain,150,2014-02-28 19:56:00
12:56 PM,55.9,51.1,84,29.35,10.0,SSE,10.4,-,0.00,,Overcast,160,2014-02-28 20:56:00
1:56 PM,54.0,51.1,90,29.35,4.0,SE,9.2,-,0.04,Rain,Light Rain,140,2014-02-28 21:56:00
2:30 PM,54.0,50.0,86,29.36,4.0,South,10.4,18.4,0.02,Rain,Rain,170,2014-02-28 22:30:00
2:56 PM,55.0,48.9,80,29.35,10.0,SE,10.4,-,0.02,Rain,Light Rain,140,2014-02-28 22:56:00
3:06 PM,54.0,48.0,80,29.36,10.0,SSE,10.4,-,0.00,,Overcast,150,2014-02-28 23:06:00
3:56 PM,54.0,46.9,77,29.34,10.0,SSE,9.2,-,0.00,,Overcast,150,2014-02-28 23:56:00
4:36 PM,53.1,48.0,83,29.37,6.0,South,10.4,-,0.00,Rain,Light Rain,180,2014-03-01 00:36:00
4:56 PM,53.1,48.0,83,29.37,8.0,South,6.9,-,0.02,Rain,Light Rain,190,2014-03-01 00:56:00
5:24 PM,52.0,48.0,86,29.38,10.0,SSE,6.9,-,0.00,,Mostly Cloudy,160,2014-03-01 01:24:00
5:56 PM,51.1,48.0,89,29.38,10.0,South,4.6,-,0.00,,Mostly Cloudy,170,2014-03-01 01:56:00
6:56 PM,51.1,48.0,89,29.41,10.0,Calm,Calm,-,0.01,,Overcast,0,2014-03-01 02:56:00
7:56 PM,51.1,48.9,92,29.42,10.0,Calm,Calm,-,0.01,,Overcast,0,2014-03-01 03:56:00
8:56 PM,51.1,48.0,89,29.45,6.0,Calm,Calm,-,0.00,Rain,Light Rain,0,2014-03-01 04:56:00
9:24 PM,50.0,48.0,93,29.46,5.0,Calm,Calm,-,0.02,Rain,Light Rain,0,2014-03-01 05:24:00
9:42 PM,50.0,48.0,93,29.47,10.0,Calm,Calm,-,0.03,,Overcast,0,2014-03-01 05:42:00
9:56 PM,50.0,48.0,93,29.47,10.0,Calm,Calm,-,0.03,,Mostly Cloudy,0,2014-03-01 05:56:00
10:25 PM,50.0,48.0,93,29.48,10.0,Calm,Calm,-,0.00,,Mostly Cloudy,0,2014-03-01 06:25:00
10:56 PM,50.0,46.9,89,29.47,10.0,Calm,Calm,-,0.00,,Scattered Clouds,0,2014-03-01 06:56:00
11:56 PM,48.9,46.0,90,29.49,10.0,NW,5.8,-,N/A,,Mostly Cloudy,310,2014-03-01 07:56:00